Location: Saint Louis
(38.6272°N, 90.1978°W)
Time: 00:16:29
(UTC-05:00)

HST - Visible Passes

Search period start: 25 July 2014 00:00
Search period end: 04 August 2014 00:00
Orbit: 548 x 552 km, 28.5° (Epoch: 24 July)

Date Brightness Start Highest point End Pass type
(mag) Time Alt. Az. Time Alt. Az. Time Alt. Az.
25 Jul 2.6 21:35:41 10° SW 21:38:20 16° S 21:39:21 15° S visible
26 Jul 2.8 21:29:05 10° SW 21:31:23 14° SSW 21:32:45 13° S visible
27 Jul 3.0 21:22:42 10° SW 21:24:25 12° SSW 21:26:08 10° S visible
